GEFSSE_prec_meanprecacc_354.txt.gz
Total_Precipitation_Accumulation
2.90 3.03 3.41 2.77 2.29 2.06 1.95 2.03 2.22 2.08 2.05 2.08 2.19 2.23 2.17 2.17 2.25 2.47 2.57 2.55 2.66 2.96 3.28 3.59 3.73 3.83 4.15 4.25 3.88 3.55 3.52 3.73 3.83 3.70 3.55 3.31 3.12 3.20 3.33 3.42 3.23 2.32 2.35
2.38 2.63 2.95 2.45 2.02 1.84 1.83 2.02 2.11 2.06 2.02 2.07 2.10 2.12 2.15 2.18 2.23 2.40 2.49 2.66 2.89 3.15 3.27 3.46 3.52 3.50 3.65 3.66 3.45 3.18 3.19 3.61 4.05 3.94 3.68 3.28 3.27 3.32 3.43 3.39 3.25 2.45 2.39
1.73 2.07 2.23 2.16 1.87 1.75 1.75 1.90 1.86 1.81 1.89 2.07 2.16 2.23 2.30 2.38 2.38 2.40 2.55 2.71 2.97 3.20 3.31 3.32 3.31 3.32 3.28 3.24 3.21 3.03 3.27 3.72 4.06 4.22 4.20 3.04 2.89 3.41 3.56 3.39 2.91 2.46 2.34
1.27 1.55 1.68 1.84 1.75 1.64 1.51 1.62 1.69 1.64 1.70 1.91 2.23 2.44 2.50 2.64 2.62 2.65 2.84 2.95 3.06 3.05 3.16 3.20 3.17 3.06 3.06 3.02 2.93 3.04 3.24 3.70 4.16 4.58 4.01 2.78 2.36 3.00 3.42 3.15 2.78 2.60 2.45
1.16 1.28 1.54 1.54 1.46 1.52 1.48 1.56 1.66 1.73 1.76 1.79 2.08 2.39 2.63 2.85 2.90 2.98 3.11 3.22 3.23 3.05 2.93 3.00 3.01 2.77 2.80 2.85 2.92 3.14 3.30 3.91 4.59 4.42 3.32 2.96 2.79 2.97 3.09 3.15 3.08 3.01 2.76
1.01 1.07 1.24 1.47 1.48 1.51 1.50 1.53 1.54 1.69 1.83 1.93 2.18 2.48 2.70 2.93 3.11 3.28 3.26 3.33 3.29 3.06 2.96 2.92 2.86 2.71 2.76 2.85 3.05 3.17 3.34 3.99 4.20 3.22 2.83 2.76 2.68 2.94 2.95 3.20 3.24 3.19 3.06
0.86 1.01 1.18 1.41 1.49 1.52 1.47 1.51 1.58 1.69 1.91 2.09 2.16 2.30 2.45 2.66 3.01 3.16 3.12 3.14 3.01 2.87 2.79 2.80 2.82 2.71 2.67 2.79 3.12 3.15 3.38 3.78 3.25 2.63 2.72 2.80 2.49 2.53 2.81 3.25 3.36 3.25 2.95
0.87 0.86 1.09 1.34 1.48 1.51 1.47 1.58 1.70 1.90 2.09 2.22 2.15 2.16 2.27 2.51 2.78 2.82 2.77 2.76 2.70 2.74 2.74 2.78 2.79 2.64 2.52 2.79 2.98 3.02 3.27 3.23 2.53 2.29 2.31 2.30 2.22 2.35 2.78 3.16 3.28 3.23 2.94
1.11 1.02 1.09 1.18 1.24 1.37 1.50 1.64 1.90 2.13 2.25 2.25 2.12 2.11 2.31 2.45 2.51 2.46 2.51 2.53 2.58 2.61 2.66 2.67 2.60 2.50 2.48 2.68 2.74 2.79 3.07 3.20 2.55 2.34 2.03 2.17 2.44 2.62 3.01 3.19 3.20 3.25 3.14
1.44 1.36 1.25 1.27 1.28 1.24 1.46 1.82 2.05 2.22 2.34 2.32 2.26 2.35 2.52 2.61 2.53 2.58 2.53 2.61 2.66 2.75 2.81 2.90 2.84 2.68 2.62 2.62 2.52 2.70 3.07 2.89 2.37 2.20 2.12 2.05 2.48 2.76 3.06 3.22 3.24 3.18 3.14
1.99 1.72 1.55 1.38 1.41 1.52 1.58 1.79 2.22 2.46 2.49 2.47 2.69 2.91 3.03 2.95 2.73 2.89 2.71 3.02 3.09 3.14 3.20 3.33 3.24 2.96 2.82 2.73 2.82 3.14 2.94 2.49 2.47 2.43 2.26 2.23 2.48 2.82 3.23 3.32 3.29 3.26 3.12
2.26 1.85 1.69 1.50 1.46 1.56 1.73 2.20 2.56 2.40 2.53 2.78 3.07 3.23 3.46 3.39 3.31 2.86 3.14 3.54 3.82 4.11 4.14 4.14 4.00 3.58 3.02 2.77 3.37 3.77 2.71 2.38 2.45 2.46 2.39 2.42 2.71 3.05 3.30 3.20 3.10 3.11 3.04
2.06 1.89 1.84 1.86 1.93 1.85 2.01 2.33 2.63 2.62 2.80 2.94 3.01 3.20 3.42 3.15 3.07 3.19 3.54 3.87 4.15 4.38 4.34 4.48 4.58 3.97 3.49 3.31 3.51 3.49 2.74 2.53 2.48 2.40 2.62 2.75 2.87 3.13 3.50 3.39 3.27 3.23 3.14
2.55 2.32 2.19 2.26 2.30 2.32 2.29 2.46 2.60 2.58 2.73 2.90 3.03 3.02 3.15 3.32 3.40 3.55 3.95 3.95 4.12 4.27 4.65 4.42 4.72 4.42 3.97 3.62 3.52 3.32 2.85 2.71 2.71 2.84 3.23 3.03 2.87 3.26 3.72 3.71 3.58 3.37 3.18
3.16 3.15 2.91 2.63 2.51 2.60 2.81 2.81 2.63 2.76 2.90 3.00 3.20 3.18 3.13 3.45 3.65 3.76 3.89 4.11 3.82 3.87 4.34 4.55 4.38 4.57 4.60 4.27 3.94 3.54 3.31 3.05 2.96 3.05 3.26 3.29 3.18 3.31 3.66 3.86 3.73 3.64 3.39
3.33 3.45 3.24 3.11 2.97 3.03 3.31 3.43 3.30 3.14 3.40 3.37 3.30 3.23 3.31 3.55 3.96 4.17 4.10 4.19 3.94 3.73 3.96 4.22 4.26 4.94 4.82 4.69 4.22 3.85 3.68 3.50 3.24 3.17 3.28 3.58 3.44 3.20 3.34 3.80 3.96 3.93 3.76
3.61 3.52 3.46 3.44 3.42 3.61 3.74 3.70 3.48 3.40 3.28 3.37 3.46 3.49 3.50 3.47 3.92 4.18 4.36 4.33 4.06 3.81 4.05 4.23 4.45 4.73 4.50 4.40 4.21 4.02 3.85 3.71 3.43 3.30 3.59 3.84 3.59 3.43 3.35 3.55 3.94 4.14 4.21
3.89 3.87 3.87 3.70 3.86 4.08 4.19 4.07 3.90 3.73 3.54 3.36 3.30 3.49 3.56 3.65 3.92 4.17 4.10 4.01 4.11 4.05 4.33 4.57 4.68 4.75 4.65 4.48 4.26 3.92 3.76 3.82 3.39 3.24 3.28 3.37 3.47 3.22 3.43 3.75 4.02 4.11 4.37
4.36 4.51 4.55 4.49 4.42 4.47 4.51 4.40 4.43 4.40 4.16 3.81 3.67 3.71 3.79 3.72 3.73 3.97 3.95 4.08 4.17 4.19 4.30 3.93 4.52 4.57 4.66 4.49 3.89 3.73 3.45 3.45 3.34 2.99 2.97 2.82 2.99 3.12 3.18 3.32 3.66 3.76 4.33
4.59 5.11 5.14 5.02 5.06 5.17 5.17 4.87 4.87 4.66 4.38 4.22 4.17 4.32 4.09 3.89 3.70 3.93 3.93 4.08 4.11 4.22 4.30 4.28 4.57 4.51 4.36 4.31 3.49 3.35 3.25 2.99 2.92 2.90 2.70 2.68 2.80 2.70 2.89 3.21 3.51 3.23 3.74
4.86 5.36 5.63 5.73 5.69 5.48 5.21 4.85 4.65 4.66 4.65 4.38 4.16 4.01 3.89 3.76 3.81 4.18 4.05 4.44 4.32 4.09 4.06 4.16 4.43 4.35 4.07 4.14 4.12 3.59 2.99 2.67 2.69 2.60 2.69 2.80 2.63 2.70 3.05 3.48 3.61 3.39 3.11
4.45 4.91 5.12 4.94 4.97 4.85 4.65 4.59 4.58 4.85 4.57 4.28 4.11 3.98 3.66 3.63 3.72 3.73 4.14 4.12 4.15 4.26 4.16 4.12 4.33 4.17 3.77 3.98 4.27 4.22 3.48 3.26 2.76 2.23 2.49 2.68 2.77 3.04 3.14 3.18 3.55 3.70 3.38
3.40 3.69 3.90 4.12 4.16 4.11 4.13 4.10 4.20 4.46 4.31 4.17 4.04 3.94 3.54 3.36 3.34 3.50 3.67 3.87 4.21 4.06 4.09 4.18 4.11 4.05 3.80 3.77 3.98 4.33 3.87 3.42 2.90 2.36 2.21 2.47 2.86 3.16 3.13 3.16 3.26 3.45 3.51
3.05 3.25 3.35 3.46 3.64 3.72 3.84 3.77 3.64 3.55 3.56 3.58 3.66 3.61 3.59 3.42 3.31 3.32 3.44 3.63 3.81 3.61 3.68 3.38 3.51 3.82 3.99 3.71 3.82 3.76 3.67 3.60 3.49 2.94 2.49 2.43 2.72 2.92 3.10 3.07 3.19 3.36 3.57
2.47 2.70 2.85 3.01 3.18 3.44 3.59 3.54 3.51 3.30 3.29 3.37 3.44 3.48 3.47 3.39 3.29 3.22 3.24 3.31 3.34 3.21 3.28 3.21 3.45 3.45 3.47 3.47 3.58 3.66 3.76 3.75 3.56 3.38 2.99 2.88 2.78 2.52 2.60 2.82 3.04 3.20 3.39
2.22 2.40 2.53 2.68 2.81 3.04 3.22 3.33 3.40 3.35 3.25 3.21 3.22 3.24 3.22 3.22 3.11 3.02 2.95 2.98 3.00 3.00 3.05 3.11 3.26 3.17 3.21 3.37 3.44 3.48 3.67 3.69 3.76 3.76 3.22 3.00 2.78 2.29 2.26 2.26 2.50 2.81 3.21

GEFSSE_prec_meanprecacc_360.txt.gz
Total_Precipitation_Accumulation
2.92 3.06 3.45 2.81 2.33 2.10 2.00 2.10 2.31 2.18 2.16 2.20 2.32 2.34 2.27 2.29 2.40 2.59 2.66 2.66 2.75 3.04 3.36 3.66 3.81 3.95 4.29 4.38 4.00 3.66 3.61 3.83 3.92 3.77 3.61 3.36 3.17 3.25 3.36 3.47 3.27 2.34 2.38
2.40 2.65 2.99 2.50 2.06 1.88 1.90 2.08 2.18 2.16 2.15 2.19 2.23 2.26 2.29 2.32 2.37 2.53 2.59 2.75 2.98 3.23 3.33 3.52 3.58 3.60 3.76 3.77 3.56 3.26 3.27 3.71 4.14 4.03 3.76 3.35 3.33 3.38 3.47 3.43 3.31 2.50 2.43
1.75 2.10 2.28 2.21 1.91 1.80 1.81 1.98 1.94 1.94 2.03 2.18 2.26 2.32 2.40 2.50 2.48 2.50 2.67 2.86 3.12 3.29 3.37 3.36 3.35 3.38 3.35 3.31 3.27 3.09 3.33 3.78 4.13 4.29 4.27 3.12 2.96 3.48 3.61 3.44 2.97 2.52 2.40
1.28 1.57 1.71 1.89 1.79 1.69 1.58 1.71 1.82 1.78 1.82 2.00 2.31 2.51 2.56 2.70 2.69 2.71 2.92 3.08 3.24 3.18 3.21 3.25 3.20 3.11 3.12 3.07 2.99 3.09 3.28 3.75 4.23 4.65 4.07 2.85 2.44 3.08 3.52 3.25 2.87 2.70 2.55
1.17 1.30 1.59 1.60 1.52 1.57 1.54 1.64 1.76 1.82 1.85 1.88 2.17 2.47 2.69 2.90 2.95 3.04 3.18 3.31 3.31 3.13 2.99 3.03 3.04 2.81 2.85 2.90 2.98 3.21 3.37 3.98 4.66 4.49 3.39 3.03 2.86 3.05 3.17 3.23 3.16 3.10 2.85
1.03 1.11 1.30 1.52 1.52 1.56 1.56 1.59 1.59 1.74 1.93 2.03 2.24 2.55 2.76 2.98 3.16 3.33 3.33 3.43 3.36 3.10 2.98 2.94 2.88 2.75 2.80 2.90 3.12 3.22 3.39 4.06 4.28 3.34 2.95 2.86 2.77 3.02 3.03 3.28 3.30 3.26 3.13
0.87 1.03 1.20 1.42 1.51 1.55 1.51 1.57 1.63 1.74 2.00 2.19 2.23 2.36 2.50 2.71 3.07 3.22 3.18 3.21 3.08 2.91 2.81 2.83 2.85 2.74 2.71 2.82 3.16 3.19 3.42 3.83 3.31 2.74 2.84 2.91 2.60 2.60 2.88 3.32 3.43 3.33 3.01
0.88 0.88 1.10 1.36 1.48 1.52 1.50 1.63 1.76 1.98 2.20 2.33 2.23 2.22 2.33 2.57 2.84 2.88 2.84 2.81 2.76 2.79 2.77 2.81 2.82 2.68 2.57 2.84 3.02 3.06 3.31 3.26 2.56 2.34 2.38 2.40 2.32 2.43 2.87 3.24 3.37 3.33 3.02
1.11 1.03 1.11 1.20 1.26 1.39 1.55 1.69 1.98 2.25 2.36 2.34 2.18 2.17 2.37 2.51 2.56 2.53 2.58 2.60 2.65 2.67 2.70 2.71 2.63 2.54 2.52 2.73 2.80 2.84 3.13 3.25 2.59 2.39 2.08 2.25 2.54 2.71 3.12 3.30 3.29 3.34 3.24
1.44 1.37 1.27 1.29 1.31 1.28 1.52 1.89 2.13 2.35 2.43 2.39 2.31 2.40 2.57 2.67 2.57 2.63 2.59 2.67 2.74 2.83 2.88 2.96 2.89 2.73 2.69 2.70 2.58 2.77 3.15 2.96 2.42 2.23 2.17 2.11 2.57 2.88 3.19 3.34 3.35 3.28 3.23
2.00 1.73 1.56 1.40 1.45 1.56 1.65 1.86 2.32 2.59 2.58 2.54 2.75 2.96 3.08 3.00 2.78 2.95 2.74 3.07 3.15 3.21 3.30 3.43 3.33 3.05 2.93 2.84 2.92 3.23 3.03 2.56 2.51 2.47 2.32 2.28 2.55 2.91 3.37 3.46 3.41 3.36 3.19
2.28 1.85 1.70 1.51 1.49 1.59 1.78 2.31 2.69 2.51 2.61 2.85 3.14 3.30 3.52 3.44 3.36 2.93 3.21 3.59 3.88 4.15 4.20 4.24 4.12 3.71 3.17 2.92 3.52 3.91 2.80 2.43 2.50 2.50 2.42 2.46 2.76 3.12 3.39 3.32 3.24 3.23 3.14
2.08 1.90 1.86 1.89 1.97 1.89 2.05 2.46 2.76 2.71 2.87 3.01 3.07 3.28 3.49 3.20 3.12 3.27 3.64 3.95 4.23 4.45 4.40 4.56 4.66 4.07 3.62 3.50 3.71 3.66 2.88 2.65 2.56 2.45 2.66 2.79 2.91 3.17 3.55 3.45 3.35 3.36 3.28
2.59 2.35 2.22 2.28 2.33 2.36 2.33 2.56 2.72 2.65 2.78 2.95 3.08 3.08 3.22 3.38 3.46 3.62 4.02 4.04 4.22 4.37 4.75 4.50 4.84 4.56 4.09 3.75 3.68 3.47 2.97 2.79 2.76 2.88 3.27 3.07 2.90 3.28 3.74 3.75 3.65 3.45 3.28
3.22 3.20 2.97 2.68 2.54 2.64 2.85 2.87 2.72 2.82 2.94 3.02 3.22 3.22 3.19 3.51 3.71 3.82 3.94 4.17 3.90 3.97 4.44 4.64 4.49 4.76 4.74 4.35 4.02 3.67 3.44 3.12 3.01 3.09 3.30 3.32 3.22 3.35 3.72 3.93 3.81 3.73 3.50
3.36 3.52 3.31 3.16 3.00 3.06 3.34 3.48 3.38 3.24 3.52 3.47 3.40 3.30 3.39 3.65 4.03 4.23 4.15 4.25 4.00 3.79 4.02 4.29 4.37 5.09 4.92 4.78 4.31 3.94 3.81 3.64 3.33 3.24 3.32 3.61 3.48 3.27 3.43 3.86 4.02 4.00 3.85
3.64 3.55 3.49 3.47 3.45 3.64 3.76 3.75 3.54 3.46 3.36 3.44 3.52 3.54 3.55 3.52 3.96 4.22 4.42 4.39 4.12 3.86 4.11 4.29 4.53 4.82 4.60 4.53 4.33 4.13 3.98 3.81 3.49 3.35 3.63 3.88 3.64 3.47 3.39 3.58 3.97 4.18 4.29
3.94 3.91 3.91 3.72 3.88 4.11 4.21 4.10 3.94 3.77 3.60 3.42 3.35 3.54 3.59 3.69 3.96 4.22 4.15 4.06 4.17 4.11 4.39 4.63 4.73 4.79 4.71 4.54 4.31 3.96 3.80 3.86 3.44 3.29 3.33 3.41 3.51 3.25 3.46 3.79 4.06 4.15 4.42
4.40 4.53 4.58 4.52 4.45 4.48 4.52 4.43 4.47 4.45 4.22 3.86 3.72 3.75 3.83 3.75 3.76 4.01 4.01 4.13 4.21 4.22 4.34 3.97 4.55 4.60 4.70 4.54 3.93 3.76 3.48 3.49 3.38 3.02 2.99 2.84 3.00 3.14 3.21 3.36 3.70 3.79 4.39
4.60 5.12 5.16 5.04 5.08 5.20 5.21 4.92 4.93 4.71 4.43 4.26 4.21 4.35 4.13 3.92 3.73 3.97 3.97 4.11 4.13 4.25 4.33 4.32 4.61 4.54 4.40 4.36 3.53 3.39 3.29 3.03 2.95 2.94 2.73 2.70 2.82 2.71 2.91 3.24 3.55 3.27 3.78
4.87 5.36 5.65 5.75 5.72 5.52 5.25 4.90 4.73 4.73 4.70 4.42 4.19 4.03 3.93 3.81 3.84 4.21 4.08 4.47 4.33 4.11 4.10 4.19 4.46 4.38 4.12 4.19 4.16 3.62 3.02 2.69 2.73 2.64 2.72 2.82 2.64 2.71 3.06 3.48 3.63 3.42 3.14
4.46 4.92 5.14 4.97 5.00 4.89 4.69 4.65 4.65 4.92 4.62 4.31 4.14 4.00 3.70 3.68 3.77 3.76 4.18 4.15 4.17 4.29 4.19 4.15 4.35 4.20 3.82 4.02 4.30 4.25 3.51 3.30 2.80 2.26 2.52 2.71 2.79 3.05 3.16 3.20 3.58 3.74 3.40
3.42 3.70 3.92 4.14 4.18 4.14 4.16 4.14 4.23 4.50 4.34 4.21 4.08 3.98 3.57 3.39 3.37 3.53 3.70 3.90 4.24 4.09 4.13 4.23 4.15 4.09 3.84 3.81 4.02 4.38 3.92 3.46 2.94 2.40 2.25 2.50 2.89 3.20 3.17 3.20 3.29 3.49 3.55
3.06 3.26 3.35 3.47 3.65 3.74 3.88 3.80 3.68 3.60 3.61 3.62 3.69 3.63 3.61 3.44 3.32 3.34 3.46 3.65 3.83 3.63 3.71 3.42 3.54 3.85 4.02 3.74 3.85 3.79 3.71 3.64 3.53 2.98 2.53 2.48 2.76 2.96 3.13 3.09 3.23 3.41 3.62
2.48 2.70 2.86 3.01 3.18 3.46 3.61 3.59 3.56 3.35 3.33 3.39 3.46 3.50 3.50 3.41 3.31 3.24 3.25 3.33 3.38 3.25 3.31 3.24 3.47 3.47 3.50 3.51 3.61 3.69 3.80 3.78 3.60 3.40 3.02 2.92 2.82 2.56 2.63 2.84 3.07 3.24 3.44
2.22 2.41 2.54 2.69 2.81 3.04 3.24 3.37 3.46 3.40 3.29 3.24 3.24 3.27 3.25 3.26 3.14 3.04 2.97 3.02 3.06 3.05 3.09 3.14 3.29 3.19 3.24 3.40 3.47 3.52 3.71 3.73 3.80 3.79 3.26 3.04 2.82 2.33 2.29 2.28 2.53 2.83 3.24

GEFSSE_prec_meanprecacc_366.txt.gz
Total_Precipitation_Accumulation
3.00 3.09 3.47 2.84 2.36 2.15 2.07 2.17 2.41 2.26 2.22 2.26 2.39 2.41 2.37 2.47 2.53 2.67 2.73 2.72 2.81 3.09 3.42 3.74 3.90 4.06 4.40 4.48 4.09 3.76 3.74 3.93 3.99 3.84 3.67 3.41 3.20 3.28 3.39 3.51 3.33 2.40 2.42
2.45 2.68 3.01 2.52 2.09 1.92 1.95 2.14 2.25 2.23 2.20 2.25 2.34 2.42 2.43 2.56 2.55 2.64 2.65 2.80 3.04 3.29 3.40 3.58 3.66 3.69 3.87 3.89 3.65 3.34 3.36 3.79 4.21 4.11 3.84 3.41 3.38 3.42 3.52 3.48 3.38 2.57 2.48
1.79 2.14 2.30 2.23 1.94 1.84 1.86 2.03 2.01 2.01 2.09 2.23 2.33 2.41 2.48 2.60 2.60 2.62 2.76 2.94 3.20 3.39 3.44 3.42 3.41 3.45 3.44 3.41 3.35 3.16 3.41 3.86 4.20 4.36 4.38 3.21 3.02 3.54 3.66 3.49 3.02 2.58 2.46
1.32 1.60 1.73 1.91 1.82 1.75 1.65 1.78 1.90 1.86 1.89 2.06 2.36 2.56 2.60 2.75 2.74 2.77 2.99 3.16 3.34 3.30 3.33 3.32 3.25 3.15 3.19 3.15 3.06 3.16 3.35 3.81 4.30 4.73 4.21 2.98 2.52 3.17 3.59 3.31 2.92 2.77 2.63
1.22 1.34 1.61 1.61 1.54 1.61 1.60 1.71 1.87 1.91 1.92 1.94 2.22 2.51 2.72 2.94 2.99 3.08 3.21 3.36 3.38 3.25 3.12 3.11 3.07 2.85 2.90 2.96 3.03 3.26 3.43 4.05 4.74 4.57 3.54 3.20 3.01 3.17 3.27 3.30 3.22 3.14 2.90
1.06 1.13 1.31 1.53 1.52 1.58 1.62 1.67 1.69 1.82 2.01 2.09 2.29 2.59 2.78 3.01 3.20 3.38 3.37 3.48 3.40 3.15 3.06 3.01 2.92 2.78 2.85 2.96 3.17 3.27 3.44 4.14 4.39 3.47 3.09 3.04 2.92 3.11 3.09 3.35 3.37 3.31 3.17
0.89 1.05 1.21 1.43 1.51 1.56 1.54 1.62 1.69 1.81 2.10 2.26 2.27 2.40 2.54 2.74 3.11 3.26 3.23 3.26 3.12 2.95 2.85 2.87 2.89 2.78 2.76 2.88 3.20 3.23 3.48 3.88 3.40 2.89 2.98 3.06 2.74 2.67 2.92 3.37 3.50 3.39 3.07
0.91 0.90 1.12 1.37 1.50 1.54 1.52 1.66 1.79 2.03 2.28 2.40 2.27 2.27 2.37 2.60 2.89 2.93 2.88 2.85 2.79 2.83 2.81 2.84 2.85 2.72 2.62 2.88 3.06 3.11 3.38 3.31 2.61 2.43 2.49 2.54 2.44 2.50 2.92 3.29 3.43 3.40 3.11
1.13 1.06 1.14 1.22 1.28 1.41 1.56 1.72 2.01 2.30 2.45 2.41 2.21 2.20 2.40 2.55 2.60 2.56 2.61 2.64 2.69 2.73 2.76 2.75 2.66 2.57 2.55 2.77 2.84 2.90 3.19 3.30 2.65 2.45 2.14 2.36 2.63 2.79 3.20 3.37 3.35 3.40 3.31
1.45 1.38 1.30 1.33 1.35 1.32 1.55 1.91 2.16 2.40 2.51 2.47 2.35 2.42 2.59 2.69 2.60 2.66 2.62 2.70 2.78 2.92 2.99 3.03 2.94 2.77 2.74 2.75 2.62 2.82 3.22 3.02 2.47 2.28 2.28 2.22 2.65 2.95 3.27 3.41 3.42 3.34 3.28
2.00 1.74 1.59 1.44 1.49 1.62 1.70 1.89 2.36 2.64 2.64 2.61 2.80 2.98 3.11 3.06 2.84 3.01 2.79 3.10 3.17 3.26 3.37 3.52 3.41 3.11 2.99 2.91 2.96 3.28 3.11 2.65 2.59 2.54 2.44 2.37 2.62 2.97 3.43 3.53 3.49 3.42 3.25
2.30 1.89 1.75 1.56 1.53 1.63 1.82 2.37 2.77 2.59 2.68 2.92 3.23 3.38 3.60 3.53 3.43 2.98 3.26 3.62 3.90 4.19 4.25 4.31 4.21 3.79 3.26 3.00 3.58 3.97 2.88 2.52 2.57 2.57 2.50 2.52 2.82 3.18 3.45 3.39 3.34 3.33 3.22
2.13 1.94 1.89 1.93 2.01 1.93 2.09 2.53 2.87 2.83 2.98 3.11 3.18 3.38 3.57 3.28 3.19 3.33 3.71 4.02 4.30 4.52 4.52 4.72 4.80 4.18 3.74 3.59 3.80 3.73 2.96 2.75 2.65 2.54 2.76 2.86 2.96 3.22 3.61 3.49 3.39 3.42 3.38
2.62 2.38 2.24 2.31 2.35 2.39 2.36 2.62 2.83 2.76 2.89 3.04 3.16 3.16 3.30 3.46 3.54 3.68 4.10 4.12 4.30 4.46 4.86 4.65 5.00 4.69 4.23 3.88 3.79 3.57 3.05 2.88 2.85 2.98 3.35 3.13 2.95 3.33 3.79 3.78 3.68 3.50 3.34
3.25 3.23 3.00 2.70 2.56 2.66 2.89 2.94 2.82 2.94 3.05 3.10 3.29 3.30 3.27 3.58 3.79 3.90 4.03 4.24 3.95 4.03 4.52 4.71 4.59 4.87 4.88 4.51 4.15 3.78 3.52 3.21 3.09 3.18 3.37 3.37 3.27 3.39 3.76 3.98 3.86 3.78 3.56
3.38 3.53 3.33 3.19 3.02 3.09 3.36 3.53 3.47 3.35 3.63 3.56 3.48 3.38 3.47 3.71 4.09 4.30 4.24 4.33 4.06 3.85 4.09 4.37 4.47 5.21 5.10 4.97 4.46 4.05 3.89 3.74 3.44 3.33 3.41 3.67 3.52 3.30 3.46 3.90 4.06 4.04 3.90
3.66 3.56 3.51 3.50 3.47 3.66 3.79 3.78 3.60 3.54 3.44 3.51 3.60 3.61 3.61 3.58 4.02 4.29 4.50 4.46 4.18 3.93 4.19 4.39 4.65 4.94 4.72 4.63 4.43 4.22 4.08 3.92 3.59 3.45 3.72 3.95 3.69 3.51 3.42 3.62 4.01 4.22 4.32
3.95 3.93 3.93 3.73 3.90 4.13 4.23 4.13 3.98 3.83 3.66 3.48 3.41 3.59 3.65 3.76 4.03 4.29 4.22 4.12 4.22 4.19 4.48 4.71 4.80 4.86 4.79 4.61 4.37 4.01 3.85 3.93 3.52 3.38 3.41 3.50 3.59 3.32 3.54 3.85 4.11 4.19 4.46
4.42 4.57 4.62 4.54 4.47 4.50 4.55 4.46 4.50 4.49 4.27 3.91 3.76 3.80 3.88 3.79 3.81 4.07 4.08 4.21 4.27 4.29 4.41 4.04 4.63 4.68 4.76 4.59 3.96 3.81 3.52 3.54 3.45 3.10 3.07 2.94 3.10 3.24 3.30 3.41 3.73 3.83 4.43
4.61 5.15 5.19 5.07 5.12 5.22 5.24 4.95 4.96 4.75 4.49 4.32 4.27 4.41 4.16 3.96 3.76 4.02 4.03 4.18 4.19 4.31 4.40 4.40 4.68 4.61 4.47 4.42 3.57 3.43 3.34 3.07 3.01 3.02 2.81 2.78 2.92 2.79 2.97 3.29 3.60 3.31 3.82
4.88 5.40 5.69 5.78 5.75 5.55 5.29 4.95 4.78 4.78 4.74 4.46 4.22 4.07 3.96 3.84 3.87 4.26 4.12 4.52 4.38 4.17 4.16 4.26 4.51 4.43 4.17 4.24 4.20 3.67 3.07 2.74 2.80 2.71 2.79 2.89 2.72 2.77 3.12 3.55 3.70 3.48 3.19
4.50 4.96 5.17 5.00 5.02 4.91 4.73 4.69 4.69 4.97 4.66 4.35 4.17 4.04 3.73 3.72 3.81 3.81 4.23 4.19 4.20 4.33 4.26 4.21 4.40 4.25 3.86 4.06 4.36 4.32 3.58 3.36 2.85 2.30 2.57 2.77 2.85 3.10 3.22 3.27 3.65 3.79 3.45
3.44 3.72 3.94 4.17 4.21 4.16 4.19 4.17 4.28 4.54 4.39 4.27 4.14 4.03 3.61 3.42 3.41 3.59 3.76 3.94 4.28 4.13 4.17 4.27 4.18 4.12 3.88 3.86 4.08 4.45 3.99 3.52 2.99 2.45 2.29 2.55 2.94 3.25 3.23 3.27 3.37 3.55 3.60
3.08 3.30 3.39 3.50 3.68 3.77 3.91 3.83 3.72 3.64 3.66 3.68 3.76 3.69 3.65 3.48 3.37 3.40 3.52 3.71 3.90 3.68 3.76 3.46 3.57 3.89 4.07 3.79 3.90 3.85 3.76 3.70 3.60 3.03 2.58 2.53 2.81 3.01 3.19 3.16 3.30 3.48 3.67
2.52 2.76 2.93 3.06 3.23 3.53 3.69 3.65 3.65 3.42 3.39 3.44 3.51 3.55 3.54 3.46 3.35 3.28 3.31 3.38 3.42 3.30 3.37 3.30 3.53 3.52 3.54 3.55 3.65 3.75 3.87 3.87 3.67 3.47 3.10 2.99 2.87 2.60 2.67 2.89 3.13 3.30 3.50
2.25 2.44 2.58 2.72 2.84 3.09 3.30 3.44 3.55 3.46 3.34 3.30 3.30 3.31 3.29 3.30 3.18 3.08 3.01 3.07 3.09 3.09 3.14 3.20 3.34 3.24 3.29 3.45 3.53 3.57 3.77 3.80 3.87 3.85 3.31 3.10 2.86 2.36 2.31 2.32 2.56 2.86 3.29

GEFSSE_prec_meanprecacc_372.txt.gz
Total_Precipitation_Accumulation
3.05 3.15 3.51 2.86 2.39 2.23 2.18 2.31 2.53 2.30 2.25 2.28 2.41 2.43 2.40 2.49 2.56 2.70 2.77 2.74 2.83 3.12 3.46 3.78 3.94 4.12 4.46 4.53 4.15 3.81 3.78 3.99 4.06 3.91 3.73 3.47 3.26 3.32 3.42 3.53 3.37 2.43 2.45
2.47 2.71 3.05 2.54 2.11 1.97 2.02 2.26 2.34 2.26 2.23 2.27 2.36 2.43 2.44 2.59 2.58 2.68 2.70 2.82 3.06 3.31 3.43 3.62 3.71 3.76 3.92 3.93 3.69 3.38 3.40 3.84 4.28 4.18 3.90 3.47 3.43 3.47 3.55 3.51 3.41 2.60 2.52
1.81 2.15 2.32 2.25 1.97 1.87 1.90 2.07 2.05 2.04 2.12 2.26 2.34 2.42 2.49 2.61 2.62 2.65 2.80 2.96 3.22 3.42 3.48 3.46 3.47 3.50 3.49 3.45 3.38 3.19 3.45 3.91 4.28 4.45 4.46 3.26 3.06 3.59 3.71 3.52 3.06 2.62 2.50
1.33 1.61 1.74 1.92 1.85 1.77 1.67 1.81 1.93 1.90 1.92 2.08 2.38 2.57 2.61 2.76 2.76 2.80 3.01 3.19 3.38 3.35 3.36 3.35 3.30 3.19 3.22 3.19 3.10 3.20 3.39 3.86 4.36 4.82 4.27 3.03 2.56 3.20 3.63 3.34 2.96 2.81 2.66
1.24 1.35 1.62 1.62 1.56 1.63 1.62 1.75 1.92 1.96 1.96 1.97 2.25 2.54 2.74 2.95 3.01 3.10 3.24 3.39 3.41 3.27 3.14 3.14 3.12 2.88 2.94 3.01 3.07 3.30 3.48 4.11 4.80 4.64 3.59 3.25 3.04 3.22 3.31 3.34 3.26 3.18 2.93
1.07 1.14 1.33 1.54 1.53 1.59 1.64 1.71 1.73 1.87 2.05 2.12 2.31 2.62 2.80 3.02 3.22 3.40 3.39 3.50 3.42 3.16 3.08 3.05 2.99 2.84 2.89 3.01 3.22 3.30 3.47 4.19 4.45 3.52 3.14 3.09 2.96 3.16 3.14 3.39 3.42 3.33 3.19
0.91 1.06 1.22 1.44 1.52 1.58 1.56 1.64 1.72 1.85 2.12 2.28 2.29 2.42 2.55 2.76 3.13 3.29 3.25 3.28 3.14 2.97 2.90 2.91 2.96 2.84 2.80 2.93 3.25 3.26 3.51 3.93 3.45 2.94 3.04 3.11 2.78 2.73 2.99 3.43 3.55 3.43 3.10
0.93 0.92 1.13 1.38 1.50 1.54 1.53 1.67 1.82 2.07 2.31 2.42 2.29 2.28 2.38 2.62 2.91 2.95 2.91 2.87 2.82 2.87 2.84 2.89 2.89 2.76 2.68 2.95 3.11 3.15 3.41 3.35 2.65 2.47 2.54 2.58 2.49 2.57 2.99 3.35 3.48 3.45 3.14
1.15 1.08 1.15 1.23 1.29 1.42 1.57 1.74 2.04 2.33 2.49 2.43 2.23 2.22 2.42 2.57 2.63 2.59 2.64 2.67 2.74 2.78 2.80 2.80 2.70 2.61 2.60 2.83 2.89 2.92 3.23 3.37 2.71 2.49 2.20 2.42 2.69 2.85 3.26 3.43 3.40 3.45 3.35
1.47 1.41 1.32 1.35 1.38 1.34 1.56 1.93 2.19 2.43 2.55 2.50 2.38 2.44 2.62 2.73 2.63 2.69 2.65 2.74 2.81 2.94 3.01 3.07 3.00 2.85 2.81 2.82 2.67 2.85 3.27 3.09 2.57 2.35 2.35 2.28 2.71 3.01 3.32 3.46 3.47 3.39 3.32
2.03 1.77 1.62 1.47 1.52 1.63 1.71 1.91 2.38 2.66 2.66 2.65 2.84 3.01 3.12 3.07 2.85 3.03 2.81 3.14 3.20 3.28 3.39 3.55 3.47 3.20 3.11 2.99 3.03 3.35 3.18 2.74 2.69 2.61 2.50 2.43 2.68 3.03 3.49 3.58 3.53 3.45 3.28
2.32 1.90 1.76 1.59 1.57 1.66 1.84 2.39 2.79 2.60 2.70 2.95 3.25 3.39 3.61 3.54 3.44 3.00 3.28 3.64 3.92 4.21 4.26 4.33 4.27 3.88 3.36 3.09 3.66 4.08 2.97 2.59 2.64 2.60 2.54 2.58 2.88 3.24 3.51 3.43 3.38 3.37 3.25
2.14 1.95 1.90 1.94 2.03 1.95 2.11 2.56 2.91 2.86 3.02 3.15 3.20 3.39 3.59 3.30 3.20 3.35 3.72 4.05 4.32 4.54 4.54 4.77 4.87 4.25 3.83 3.71 3.92 3.85 3.06 2.84 2.71 2.58 2.79 2.90 3.00 3.27 3.68 3.54 3.43 3.47 3.44
2.64 2.39 2.25 2.31 2.37 2.40 2.37 2.64 2.87 2.78 2.92 3.08 3.18 3.18 3.32 3.49 3.56 3.71 4.12 4.14 4.31 4.47 4.88 4.69 5.08 4.83 4.41 4.11 4.02 3.77 3.21 3.00 2.94 3.03 3.39 3.16 2.98 3.37 3.84 3.83 3.71 3.52 3.39
3.26 3.25 3.01 2.71 2.57 2.68 2.90 2.95 2.85 2.96 3.07 3.12 3.32 3.33 3.30 3.60 3.81 3.92 4.05 4.26 3.97 4.05 4.54 4.73 4.62 4.92 4.97 4.65 4.36 3.98 3.70 3.38 3.20 3.25 3.41 3.41 3.31 3.44 3.82 4.04 3.92 3.81 3.58
3.40 3.55 3.34 3.20 3.04 3.11 3.38 3.54 3.48 3.37 3.65 3.58 3.50 3.40 3.53 3.75 4.12 4.32 4.27 4.37 4.09 3.87 4.12 4.40 4.49 5.25 5.16 5.03 4.53 4.14 4.01 3.88 3.56 3.47 3.49 3.72 3.58 3.37 3.54 3.99 4.15 4.11 3.96
3.69 3.60 3.53 3.51 3.49 3.69 3.80 3.79 3.61 3.55 3.45 3.52 3.61 3.62 3.64 3.61 4.05 4.32 4.53 4.50 4.20 3.95 4.21 4.42 4.67 4.98 4.75 4.65 4.46 4.25 4.12 3.98 3.67 3.57 3.79 4.00 3.74 3.55 3.48 3.70 4.10 4.31 4.41
4.01 4.00 3.99 3.76 3.94 4.17 4.26 4.15 4.00 3.85 3.68 3.50 3.42 3.61 3.67 3.78 4.06 4.33 4.26 4.15 4.24 4.21 4.49 4.73 4.83 4.89 4.81 4.63 4.40 4.03 3.87 3.96 3.55 3.42 3.46 3.57 3.66 3.35 3.57 3.91 4.19 4.28 4.53
4.49 4.69 4.72 4.63 4.53 4.54 4.57 4.48 4.53 4.53 4.31 3.94 3.80 3.84 3.92 3.82 3.84 4.11 4.11 4.23 4.29 4.31 4.43 4.05 4.65 4.70 4.79 4.62 4.00 3.84 3.55 3.56 3.47 3.14 3.13 3.00 3.18 3.31 3.34 3.46 3.81 3.93 4.53
4.64 5.22 5.26 5.14 5.17 5.26 5.26 4.98 4.99 4.79 4.53 4.37 4.36 4.50 4.21 3.99 3.79 4.05 4.06 4.21 4.23 4.35 4.44 4.43 4.71 4.64 4.51 4.45 3.60 3.47 3.37 3.10 3.04 3.06 2.90 2.86 2.99 2.86 3.04 3.34 3.65 3.38 3.90
4.90 5.43 5.73 5.83 5.80 5.60 5.32 4.99 4.81 4.82 4.77 4.48 4.27 4.13 4.00 3.87 3.90 4.29 4.15 4.55 4.41 4.20 4.20 4.31 4.56 4.48 4.24 4.30 4.25 3.71 3.12 2.79 2.83 2.75 2.85 2.95 2.79 2.85 3.20 3.62 3.76 3.56 3.27
4.53 5.00 5.20 5.04 5.07 4.95 4.77 4.73 4.72 5.00 4.67 4.37 4.22 4.09 3.76 3.74 3.83 3.84 4.25 4.21 4.23 4.35 4.28 4.25 4.44 4.29 3.92 4.13 4.41 4.36 3.62 3.41 2.90 2.35 2.67 2.84 2.91 3.17 3.30 3.36 3.75 3.91 3.55
3.50 3.78 3.98 4.21 4.25 4.21 4.26 4.23 4.33 4.56 4.39 4.28 4.17 4.07 3.64 3.45 3.44 3.64 3.81 3.97 4.31 4.15 4.20 4.32 4.22 4.16 3.92 3.90 4.12 4.51 4.06 3.57 3.03 2.48 2.34 2.61 3.00 3.34 3.32 3.37 3.48 3.68 3.76
3.12 3.35 3.45 3.54 3.74 3.86 3.99 3.90 3.77 3.66 3.67 3.69 3.77 3.71 3.67 3.50 3.39 3.44 3.56 3.74 3.93 3.72 3.79 3.50 3.60 3.92 4.11 3.84 3.95 3.90 3.83 3.75 3.65 3.06 2.62 2.58 2.87 3.05 3.24 3.23 3.37 3.57 3.78
2.58 2.87 3.05 3.11 3.29 3.61 3.76 3.72 3.70 3.46 3.41 3.45 3.52 3.56 3.56 3.48 3.37 3.31 3.33 3.39 3.44 3.32 3.40 3.34 3.57 3.57 3.60 3.61 3.70 3.79 3.92 3.93 3.72 3.51 3.12 3.03 2.92 2.64 2.70 2.93 3.16 3.35 3.56
2.31 2.51 2.64 2.77 2.88 3.13 3.35 3.48 3.58 3.49 3.36 3.32 3.32 3.32 3.30 3.32 3.20 3.11 3.05 3.11 3.12 3.12 3.18 3.24 3.39 3.30 3.36 3.50 3.57 3.62 3.82 3.85 3.91 3.89 3.34 3.13 2.89 2.38 2.34 2.35 2.59 2.90 3.34

GEFSSE_prec_meanprecacc_378.txt.gz
Total_Precipitation_Accumulation
3.07 3.20 3.56 2.92 2.49 2.39 2.43 2.60 2.58 2.33 2.30 2.33 2.46 2.49 2.47 2.56 2.61 2.75 2.83 2.80 2.90 3.19 3.55 3.89 4.02 4.18 4.51 4.59 4.23 3.87 3.82 4.01 4.09 3.95 3.76 3.51 3.32 3.37 3.47 3.58 3.41 2.46 2.49
2.49 2.75 3.09 2.59 2.21 2.09 2.19 2.54 2.41 2.32 2.28 2.32 2.40 2.46 2.48 2.64 2.64 2.74 2.76 2.90 3.14 3.40 3.52 3.71 3.80 3.83 3.98 3.99 3.75 3.44 3.45 3.88 4.32 4.23 3.95 3.52 3.49 3.53 3.62 3.58 3.47 2.64 2.58
1.82 2.19 2.37 2.30 2.04 2.01 2.09 2.20 2.11 2.10 2.17 2.31 2.40 2.46 2.52 2.65 2.67 2.71 2.84 3.01 3.29 3.49 3.55 3.54 3.55 3.57 3.55 3.51 3.44 3.26 3.50 3.95 4.32 4.51 4.52 3.31 3.10 3.65 3.78 3.60 3.14 2.68 2.56
1.35 1.64 1.78 1.97 1.90 1.83 1.74 1.86 1.98 1.95 1.96 2.12 2.42 2.61 2.64 2.79 2.80 2.83 3.05 3.22 3.41 3.39 3.41 3.42 3.36 3.26 3.28 3.23 3.16 3.26 3.45 3.91 4.41 4.89 4.34 3.07 2.59 3.25 3.68 3.40 3.01 2.86 2.72
1.26 1.38 1.66 1.67 1.61 1.68 1.68 1.80 1.97 2.01 2.01 2.03 2.28 2.58 2.78 2.98 3.04 3.13 3.27 3.42 3.45 3.32 3.18 3.20 3.18 2.94 3.00 3.06 3.13 3.36 3.53 4.18 4.88 4.72 3.64 3.29 3.07 3.26 3.35 3.38 3.29 3.21 2.98
1.08 1.16 1.36 1.58 1.59 1.66 1.70 1.77 1.79 1.91 2.09 2.17 2.35 2.65 2.83 3.04 3.23 3.43 3.42 3.54 3.46 3.21 3.13 3.11 3.04 2.89 2.93 3.06 3.27 3.36 3.53 4.25 4.53 3.60 3.18 3.11 2.98 3.19 3.20 3.44 3.46 3.37 3.23
0.92 1.08 1.24 1.48 1.58 1.64 1.60 1.68 1.77 1.89 2.17 2.33 2.33 2.46 2.57 2.78 3.16 3.32 3.30 3.33 3.19 3.03 2.96 2.98 3.00 2.88 2.84 2.97 3.30 3.31 3.55 3.97 3.49 2.97 3.07 3.13 2.80 2.75 3.04 3.49 3.61 3.48 3.13
0.93 0.93 1.15 1.41 1.55 1.60 1.58 1.72 1.86 2.11 2.35 2.46 2.33 2.32 2.40 2.64 2.94 3.00 2.97 2.93 2.87 2.93 2.91 2.95 2.95 2.81 2.73 3.00 3.16 3.20 3.46 3.39 2.67 2.48 2.55 2.59 2.51 2.60 3.04 3.40 3.54 3.50 3.18
1.16 1.09 1.17 1.25 1.32 1.47 1.65 1.82 2.10 2.38 2.52 2.47 2.27 2.25 2.45 2.60 2.66 2.65 2.71 2.73 2.80 2.85 2.87 2.86 2.76 2.67 2.67 2.90 2.97 2.98 3.29 3.43 2.74 2.50 2.21 2.43 2.72 2.90 3.32 3.49 3.46 3.51 3.41
1.49 1.43 1.35 1.36 1.40 1.37 1.63 2.00 2.27 2.49 2.60 2.55 2.43 2.49 2.66 2.77 2.68 2.74 2.71 2.79 2.87 3.00 3.08 3.12 3.07 2.92 2.91 2.94 2.79 2.96 3.38 3.19 2.61 2.38 2.37 2.29 2.74 3.06 3.38 3.54 3.54 3.45 3.37
2.04 1.78 1.64 1.50 1.55 1.65 1.74 1.96 2.44 2.71 2.72 2.70 2.88 3.05 3.15 3.08 2.87 3.05 2.85 3.18 3.25 3.34 3.44 3.61 3.53 3.26 3.19 3.10 3.16 3.48 3.31 2.84 2.76 2.66 2.53 2.44 2.72 3.08 3.54 3.65 3.61 3.53 3.32
2.33 1.92 1.78 1.61 1.59 1.67 1.86 2.43 2.83 2.63 2.73 2.97 3.28 3.43 3.63 3.55 3.45 3.01 3.30 3.68 3.96 4.25 4.31 4.39 4.33 3.95 3.43 3.16 3.79 4.24 3.09 2.69 2.70 2.64 2.57 2.61 2.93 3.30 3.57 3.48 3.44 3.43 3.30
2.17 1.96 1.91 1.95 2.04 1.96 2.12 2.58 2.93 2.88 3.04 3.16 3.22 3.41 3.61 3.33 3.22 3.36 3.73 4.08 4.35 4.57 4.59 4.82 4.93 4.32 3.90 3.78 4.04 4.06 3.19 2.90 2.75 2.61 2.82 2.94 3.06 3.34 3.75 3.60 3.47 3.52 3.50
2.67 2.41 2.27 2.33 2.39 2.42 2.39 2.65 2.89 2.80 2.94 3.10 3.20 3.19 3.33 3.50 3.58 3.72 4.14 4.16 4.32 4.49 4.91 4.71 5.11 4.86 4.45 4.16 4.12 3.92 3.31 3.05 2.98 3.07 3.42 3.19 3.02 3.42 3.92 3.90 3.77 3.58 3.45
3.28 3.26 3.03 2.73 2.59 2.69 2.92 2.96 2.87 2.99 3.10 3.15 3.34 3.34 3.30 3.61 3.81 3.93 4.06 4.27 3.98 4.06 4.55 4.74 4.63 4.95 5.01 4.70 4.45 4.14 3.88 3.55 3.31 3.32 3.46 3.46 3.35 3.49 3.89 4.12 4.00 3.90 3.67
3.42 3.58 3.36 3.23 3.06 3.13 3.40 3.55 3.51 3.40 3.68 3.61 3.51 3.41 3.54 3.76 4.12 4.32 4.27 4.37 4.10 3.88 4.13 4.41 4.52 5.28 5.21 5.10 4.60 4.26 4.21 4.14 3.77 3.62 3.57 3.78 3.63 3.43 3.62 4.09 4.26 4.24 4.12
3.74 3.65 3.57 3.55 3.52 3.71 3.82 3.81 3.63 3.57 3.47 3.55 3.64 3.63 3.65 3.62 4.06 4.33 4.54 4.51 4.21 3.96 4.22 4.44 4.70 5.01 4.80 4.71 4.51 4.31 4.21 4.12 3.85 3.73 3.89 4.07 3.80 3.62 3.56 3.81 4.20 4.43 4.55
4.05 4.07 4.06 3.81 3.98 4.20 4.28 4.17 4.02 3.88 3.71 3.52 3.45 3.63 3.69 3.80 4.07 4.36 4.29 4.17 4.26 4.22 4.51 4.74 4.85 4.92 4.84 4.66 4.43 4.06 3.89 3.99 3.61 3.52 3.57 3.65 3.71 3.39 3.64 4.02 4.30 4.40 4.64
4.53 4.79 4.82 4.68 4.58 4.60 4.62 4.52 4.56 4.56 4.35 3.96 3.81 3.85 3.94 3.85 3.86 4.13 4.14 4.26 4.33 4.34 4.45 4.07 4.67 4.73 4.80 4.64 4.02 3.86 3.56 3.58 3.50 3.17 3.17 3.04 3.23 3.36 3.39 3.52 3.89 4.03 4.63
4.67 5.27 5.32 5.18 5.23 5.34 5.33 5.03 5.03 4.81 4.55 4.39 4.38 4.51 4.23 4.01 3.81 4.07 4.09 4.24 4.26 4.39 4.47 4.46 4.73 4.65 4.52 4.46 3.62 3.48 3.40 3.13 3.06 3.08 2.92 2.89 3.04 2.92 3.09 3.39 3.71 3.45 3.97
4.94 5.48 5.79 5.90 5.88 5.68 5.38 5.03 4.83 4.84 4.79 4.49 4.27 4.13 4.01 3.88 3.91 4.31 4.17 4.57 4.44 4.23 4.22 4.32 4.57 4.50 4.26 4.31 4.26 3.74 3.15 2.82 2.86 2.78 2.88 2.99 2.81 2.89 3.25 3.67 3.80 3.61 3.31
4.58 5.07 5.27 5.11 5.14 5.02 4.84 4.77 4.74 5.02 4.70 4.38 4.23 4.09 3.77 3.75 3.84 3.86 4.28 4.22 4.24 4.36 4.30 4.26 4.45 4.30 3.93 4.15 4.44 4.39 3.65 3.44 2.92 2.38 2.69 2.86 2.93 3.20 3.33 3.39 3.78 3.94 3.57
3.55 3.85 4.06 4.29 4.31 4.27 4.31 4.27 4.34 4.58 4.41 4.29 4.18 4.07 3.64 3.46 3.45 3.65 3.83 4.00 4.33 4.17 4.22 4.34 4.23 4.18 3.94 3.93 4.16 4.55 4.10 3.61 3.06 2.51 2.36 2.63 3.03 3.36 3.33 3.39 3.50 3.70 3.78
3.16 3.41 3.49 3.59 3.79 3.91 4.04 3.94 3.79 3.68 3.69 3.70 3.78 3.72 3.68 3.52 3.41 3.45 3.58 3.76 3.96 3.75 3.82 3.54 3.64 3.96 4.15 3.88 4.00 3.97 3.89 3.81 3.69 3.09 2.64 2.61 2.89 3.07 3.25 3.24 3.39 3.59 3.81
2.67 2.96 3.10 3.15 3.34 3.68 3.82 3.76 3.73 3.47 3.42 3.46 3.53 3.58 3.58 3.50 3.40 3.34 3.35 3.42 3.46 3.36 3.44 3.39 3.63 3.61 3.64 3.66 3.77 3.85 3.98 3.98 3.76 3.53 3.14 3.05 2.93 2.65 2.71 2.94 3.17 3.36 3.58
2.40 2.57 2.70 2.83 2.98 3.26 3.43 3.53 3.60 3.51 3.37 3.33 3.32 3.34 3.32 3.33 3.22 3.13 3.07 3.12 3.14 3.14 3.22 3.28 3.43 3.34 3.41 3.56 3.63 3.68 3.89 3.92 3.97 3.93 3.37 3.15 2.90 2.40 2.36 2.36 2.60 2.91 3.36

GEFSSE_prec_meanprecacc_384.txt.gz
Total_Precipitation_Accumulation
3.09 3.24 3.60 2.98 2.61 2.56 2.56 2.66 2.62 2.38 2.35 2.39 2.53 2.56 2.55 2.63 2.69 2.86 2.95 2.92 3.01 3.29 3.66 4.03 4.16 4.31 4.63 4.69 4.29 3.91 3.86 4.06 4.14 4.00 3.80 3.55 3.35 3.41 3.51 3.62 3.45 2.49 2.53
2.52 2.79 3.14 2.67 2.34 2.25 2.38 2.64 2.45 2.36 2.34 2.39 2.47 2.53 2.55 2.69 2.70 2.81 2.88 3.01 3.25 3.52 3.64 3.86 3.97 3.97 4.09 4.07 3.82 3.49 3.51 3.93 4.36 4.28 4.01 3.57 3.53 3.56 3.65 3.61 3.50 2.68 2.63
1.85 2.23 2.43 2.36 2.13 2.12 2.27 2.28 2.15 2.15 2.23 2.38 2.48 2.54 2.58 2.70 2.72 2.77 2.94 3.13 3.38 3.59 3.67 3.67 3.67 3.69 3.67 3.62 3.53 3.33 3.58 4.03 4.39 4.58 4.60 3.36 3.15 3.71 3.83 3.64 3.19 2.74 2.61
1.37 1.69 1.84 2.04 1.98 1.94 1.83 1.92 2.04 2.01 2.04 2.21 2.50 2.69 2.70 2.84 2.86 2.90 3.14 3.33 3.50 3.46 3.48 3.50 3.46 3.38 3.39 3.33 3.24 3.35 3.52 3.98 4.49 4.97 4.42 3.14 2.67 3.29 3.72 3.44 3.06 2.90 2.77
1.28 1.41 1.70 1.74 1.67 1.74 1.73 1.86 2.03 2.07 2.10 2.12 2.36 2.64 2.85 3.04 3.09 3.19 3.34 3.50 3.54 3.39 3.24 3.26 3.27 3.03 3.11 3.20 3.24 3.45 3.61 4.28 4.99 4.81 3.72 3.38 3.16 3.31 3.39 3.42 3.33 3.26 3.03
1.11 1.19 1.42 1.65 1.64 1.71 1.76 1.81 1.84 1.97 2.16 2.24 2.42 2.72 2.91 3.13 3.31 3.49 3.49 3.60 3.53 3.29 3.20 3.19 3.12 2.98 3.02 3.17 3.40 3.50 3.63 4.35 4.63 3.70 3.27 3.20 3.06 3.24 3.24 3.48 3.51 3.42 3.28
0.95 1.12 1.30 1.54 1.63 1.69 1.67 1.73 1.80 1.93 2.24 2.39 2.39 2.52 2.63 2.85 3.23 3.40 3.35 3.38 3.25 3.09 3.03 3.06 3.06 2.94 2.89 3.03 3.37 3.42 3.67 4.04 3.56 3.07 3.17 3.21 2.86 2.79 3.07 3.53 3.66 3.53 3.18
0.96 0.97 1.21 1.48 1.61 1.65 1.64 1.77 1.91 2.17 2.42 2.52 2.40 2.39 2.46 2.70 3.01 3.07 3.04 2.98 2.94 2.99 2.97 3.01 3.00 2.86 2.78 3.05 3.24 3.29 3.56 3.49 2.74 2.55 2.62 2.65 2.55 2.63 3.08 3.45 3.59 3.56 3.24
1.18 1.12 1.23 1.33 1.41 1.54 1.71 1.89 2.17 2.45 2.60 2.54 2.34 2.32 2.51 2.66 2.73 2.70 2.78 2.79 2.86 2.92 2.94 2.93 2.82 2.75 2.74 2.95 3.03 3.07 3.37 3.54 2.85 2.56 2.25 2.49 2.76 2.94 3.37 3.54 3.51 3.57 3.48
1.50 1.44 1.38 1.42 1.48 1.45 1.73 2.11 2.36 2.59 2.69 2.63 2.50 2.56 2.73 2.84 2.74 2.79 2.75 2.84 2.92 3.07 3.14 3.19 3.13 3.00 3.01 3.05 2.91 3.06 3.49 3.33 2.71 2.44 2.42 2.33 2.79 3.12 3.44 3.60 3.61 3.52 3.44
2.04 1.79 1.66 1.53 1.59 1.72 1.81 2.03 2.54 2.81 2.79 2.77 2.95 3.11 3.21 3.14 2.93 3.12 2.91 3.22 3.33 3.42 3.50 3.67 3.59 3.33 3.26 3.20 3.29 3.61 3.42 2.98 2.94 2.80 2.61 2.49 2.76 3.12 3.59 3.70 3.67 3.60 3.39
2.33 1.93 1.79 1.63 1.61 1.73 1.92 2.50 2.93 2.71 2.78 3.02 3.34 3.49 3.70 3.61 3.50 3.06 3.36 3.73 4.03 4.32 4.36 4.44 4.39 4.01 3.48 3.22 3.87 4.32 3.17 2.76 2.84 2.80 2.68 2.68 2.98 3.35 3.63 3.54 3.48 3.48 3.36
2.17 1.96 1.91 1.97 2.06 1.99 2.16 2.63 3.01 2.94 3.09 3.21 3.26 3.46 3.67 3.38 3.29 3.42 3.78 4.13 4.42 4.63 4.65 4.88 4.98 4.37 3.95 3.83 4.11 4.14 3.28 2.99 2.85 2.73 2.90 2.99 3.10 3.39 3.80 3.66 3.53 3.57 3.57
2.67 2.42 2.29 2.35 2.41 2.45 2.41 2.68 2.93 2.83 2.98 3.14 3.24 3.23 3.37 3.55 3.63 3.77 4.18 4.21 4.38 4.55 4.96 4.77 5.17 4.91 4.50 4.22 4.19 4.04 3.42 3.14 3.06 3.16 3.50 3.25 3.06 3.46 3.96 3.96 3.83 3.64 3.53
3.29 3.28 3.05 2.75 2.61 2.72 2.95 3.00 2.90 3.02 3.13 3.19 3.38 3.37 3.34 3.65 3.86 3.97 4.09 4.32 4.03 4.10 4.59 4.80 4.69 5.00 5.07 4.76 4.49 4.23 3.97 3.61 3.39 3.40 3.52 3.53 3.41 3.54 3.94 4.18 4.06 3.96 3.76
3.44 3.59 3.38 3.25 3.09 3.16 3.43 3.58 3.54 3.43 3.71 3.65 3.57 3.46 3.58 3.80 4.16 4.37 4.31 4.42 4.13 3.93 4.18 4.46 4.56 5.33 5.27 5.14 4.64 4.32 4.29 4.23 3.88 3.72 3.65 3.84 3.67 3.48 3.70 4.18 4.34 4.32 4.22
3.76 3.67 3.59 3.57 3.54 3.74 3.85 3.83 3.65 3.60 3.50 3.60 3.71 3.70 3.70 3.66 4.10 4.37 4.58 4.55 4.25 4.01 4.27 4.50 4.76 5.08 4.88 4.80 4.62 4.43 4.32 4.21 3.92 3.81 3.99 4.15 3.86 3.68 3.63 3.89 4.29 4.50 4.62
4.07 4.09 4.07 3.83 4.01 4.24 4.33 4.21 4.05 3.90 3.74 3.56 3.50 3.67 3.72 3.83 4.11 4.41 4.34 4.21 4.30 4.26 4.55 4.80 4.91 5.00 4.95 4.79 4.56 4.16 3.98 4.07 3.68 3.59 3.69 3.79 3.81 3.45 3.69 4.09 4.39 4.49 4.73
4.54 4.81 4.84 4.71 4.62 4.65 4.69 4.56 4.60 4.60 4.38 4.00 3.85 3.88 3.96 3.87 3.89 4.18 4.20 4.30 4.36 4.37 4.49 4.10 4.71 4.78 4.87 4.73 4.10 3.93 3.64 3.64 3.56 3.22 3.26 3.19 3.37 3.45 3.46 3.59 3.97 4.12 4.72
4.68 5.30 5.35 5.20 5.27 5.38 5.38 5.08 5.08 4.85 4.58 4.43 4.42 4.55 4.26 4.03 3.83 4.11 4.14 4.28 4.30 4.43 4.51 4.50 4.78 4.71 4.58 4.52 3.66 3.54 3.47 3.19 3.12 3.13 2.97 2.97 3.19 3.09 3.20 3.47 3.78 3.52 4.04
4.95 5.50 5.82 5.93 5.93 5.72 5.43 5.07 4.87 4.87 4.83 4.55 4.31 4.16 4.03 3.90 3.93 4.33 4.20 4.60 4.48 4.27 4.26 4.36 4.62 4.55 4.31 4.38 4.33 3.80 3.19 2.85 2.90 2.82 2.92 3.04 2.88 3.00 3.39 3.77 3.88 3.68 3.39
4.60 5.09 5.31 5.16 5.20 5.07 4.88 4.81 4.78 5.05 4.74 4.43 4.25 4.12 3.79 3.77 3.86 3.88 4.31 4.25 4.28 4.41 4.34 4.31 4.50 4.36 3.99 4.22 4.51 4.46 3.70 3.47 2.95 2.40 2.72 2.90 2.97 3.26 3.41 3.47 3.86 4.02 3.65
3.58 3.88 4.12 4.37 4.39 4.32 4.35 4.30 4.37 4.62 4.46 4.34 4.22 4.10 3.67 3.48 3.47 3.68 3.86 4.03 4.38 4.23 4.26 4.38 4.29 4.25 4.01 3.99 4.22 4.62 4.15 3.64 3.09 2.54 2.39 2.67 3.08 3.41 3.41 3.47 3.57 3.77 3.85
3.20 3.45 3.56 3.67 3.87 3.98 4.08 3.97 3.83 3.72 3.74 3.75 3.83 3.75 3.71 3.55 3.44 3.47 3.60 3.79 4.00 3.79 3.86 3.57 3.68 4.02 4.21 3.94 4.07 4.04 3.96 3.86 3.74 3.13 2.68 2.64 2.93 3.10 3.29 3.29 3.42 3.64 3.86
2.69 3.00 3.15 3.21 3.39 3.72 3.86 3.80 3.77 3.51 3.46 3.50 3.56 3.61 3.62 3.54 3.42 3.35 3.37 3.44 3.51 3.40 3.48 3.42 3.67 3.66 3.69 3.72 3.85 3.92 4.04 4.05 3.83 3.60 3.19 3.09 2.97 2.69 2.74 2.97 3.20 3.40 3.60
2.42 2.59 2.73 2.88 3.03 3.31 3.47 3.57 3.65 3.55 3.42 3.37 3.36 3.37 3.35 3.36 3.24 3.14 3.09 3.16 3.18 3.18 3.25 3.31 3.47 3.39 3.47 3.62 3.71 3.75 3.96 4.00 4.05 4.01 3.44 3.20 2.95 2.43 2.39 2.40 2.63 2.95 3.38